• En España
  • Lista de países
  • Para 7 días
  • Temperatura del agua
  • Mapa Satelital
  • El tiempo en el mapa
  • Informadores
  • user-avatar
    Iniciar sesión

    Tiempo cada hora Pamporovo

    Hoy, 19 Septiembre, Miércoles

    Tiempo Temperatura Precipitaciones Viento Presión Humedad
    00:00 +7°C° 0 mm 2 mps 630 mmHg 75%
    01:00 +7°C° 0 mm 1 mps 630 mmHg 77%
    02:00 +6°C° 0 mm 2 mps 630 mmHg 77%
    03:00 +6°C° 0 mm 2 mps 629 mmHg 78%
    04:00 +5°C° 0 mm 2 mps 629 mmHg 79%
    05:00 +5°C° 0 mm 2 mps 629 mmHg 80%
    06:00 +7°C° 0 mm 1 mps 630 mmHg 74%
    07:00 +9°C° 0 mm 1 mps 630 mmHg 67%
    08:00 +11°C° 0 mm 1 mps 631 mmHg 60%
    09:00 +13°C° 0 mm 1 mps 632 mmHg 54%
    10:00 +15°C° 0 mm 2 mps 632 mmHg 48%
    11:00 +16°C° 0 mm 2 mps 633 mmHg 42%
    12:00 +17°C° 0 mm 2 mps 633 mmHg 39%
    13:00 +18°C° 0 mm 2 mps 633 mmHg 37%
    14:00 +19°C° 0 mm 3 mps 633 mmHg 34%
    15:00 +18°C° 0 mm 3 mps 633 mmHg 36%
    16:00 +17°C° 0 mm 3 mps 632 mmHg 38%
    17:00 +17°C° 0 mm 2 mps 632 mmHg 40%
    18:00 +14°C° 0 mm 2 mps 631 mmHg 47%
    19:00 +12°C° 0 mm 2 mps 630 mmHg 54%
    20:00 +8°C° 0 mm 2 mps 630 mmHg 61%
    21:00 +8°C° 0 mm 2 mps 630 mmHg 64%
    22:00 +7°C° 0 mm 2 mps 630 mmHg 67%
    23:00 +7°C° 0 mm 2 mps 629 mmHg 70%

    Mañana, 20 Septiembre, Jueves

    Tiempo Temperatura Precipitaciones Viento Presión Humedad
    00:00 +6°C° 0 mm 2 mps 629 mmHg 72%
    01:00 +6°C° 0 mm 2 mps 629 mmHg 74%
    02:00 +6°C° 0 mm 2 mps 629 mmHg 76%
    03:00 +5°C° 0 mm 2 mps 629 mmHg 76%
    04:00 +5°C° 0 mm 2 mps 628 mmHg 76%
    05:00 +5°C° 0 mm 2 mps 628 mmHg 76%
    06:00 +6°C° 0 mm 2 mps 629 mmHg 70%
    07:00 +8°C° 0 mm 2 mps 629 mmHg 64%
    08:00 +11°C° 0 mm 1 mps 630 mmHg 58%
    09:00 +13°C° 0 mm 2 mps 631 mmHg 50%
    10:00 +15°C° 0 mm 2 mps 632 mmHg 43%
    11:00 +17°C° 0 mm 2 mps 632 mmHg 35%
    12:00 +18°C° 0 mm 2 mps 632 mmHg 33%
    13:00 +18°C° 0 mm 2 mps 632 mmHg 30%
    14:00 +19°C° 0 mm 2 mps 632 mmHg 28%
    15:00 +18°C° 0 mm 2 mps 632 mmHg 30%
    16:00 +18°C° 0 mm 2 mps 631 mmHg 32%
    17:00 +17°C° 0 mm 2 mps 631 mmHg 35%
    18:00 +15°C° 0 mm 2 mps 630 mmHg 41%
    19:00 +12°C° 0 mm 2 mps 629 mmHg 46%
    20:00 +9°C° 0 mm 2 mps 629 mmHg 52%
    21:00 +9°C° 0 mm 2 mps 629 mmHg 55%
    22:00 +8°C° 0 mm 2 mps 629 mmHg 57%
    23:00 +8°C° 0 mm 2 mps 629 mmHg 60%

    Pasado mañana, 21 Septiembre, Viernes

    Tiempo Temperatura Precipitaciones Viento Presión Humedad
    00:00 +7°C° 0 mm 2 mps 628 mmHg 62%
    01:00 +7°C° 0 mm 2 mps 628 mmHg 64%
    02:00 +7°C° 0 mm 2 mps 628 mmHg 66%
    03:00 +7°C° 0 mm 2 mps 628 mmHg 67%
    04:00 +7°C° 0 mm 2 mps 628 mmHg 68%
    05:00 +6°C° 0 mm 2 mps 628 mmHg 69%
    06:00 +8°C° 0 mm 2 mps 628 mmHg 64%
    07:00 +10°C° 0 mm 1 mps 629 mmHg 59%
    08:00 +12°C° 0 mm 1 mps 630 mmHg 54%
    09:00 +14°C° 0 mm 1 mps 631 mmHg 47%
    10:00 +16°C° 0 mm 2 mps 631 mmHg 40%
    11:00 +18°C° 0 mm 2 mps 632 mmHg 33%
    12:00 +19°C° 0 mm 2 mps 632 mmHg 32%
    13:00 +19°C° 0 mm 2 mps 632 mmHg 31%
    14:00 +20°C° 0 mm 2 mps 632 mmHg 29%
    15:00 +19°C° 0 mm 2 mps 631 mmHg 31%
    16:00 +19°C° 0 mm 2 mps 631 mmHg 34%
    17:00 +18°C° 0 mm 2 mps 631 mmHg 36%
    18:00 +16°C° 0 mm 2 mps 630 mmHg 42%
    19:00 +14°C° 0 mm 2 mps 629 mmHg 47%
    20:00 +12°C° 0 mm 1 mps 629 mmHg 52%
    21:00 +11°C° 0 mm 1 mps 629 mmHg 55%
    22:00 +11°C° 0 mm 1 mps 629 mmHg 57%
    23:00 +10°C° 0 mm 1 mps 629 mmHg 59%

    22 Septiembre, Sábado

    Tiempo Temperatura Precipitaciones Viento Presión Humedad
    00:00 +10°C° 0 mm 1 mps 629 mmHg 60%
    01:00 +10°C° 0 mm 1 mps 629 mmHg 62%
    02:00 +10°C° 0 mm 1 mps 628 mmHg 63%
    03:00 +9°C° 0 mm 1 mps 628 mmHg 64%
    04:00 +9°C° 0 mm 1 mps 628 mmHg 64%
    05:00 +8°C° 0 mm 2 mps 628 mmHg 64%
    06:00 +11°C° 0 mm 1 mps 629 mmHg 60%
    07:00 +12°C° 0 mm 1 mps 629 mmHg 56%
    08:00 +14°C° 0 mm 1 mps 630 mmHg 53%
    09:00 +15°C° 0 mm 1 mps 630 mmHg 46%
    10:00 +18°C° 0 mm 1 mps 631 mmHg 40%
    11:00 +20°C° 0 mm 1 mps 632 mmHg 34%
    12:00 +20°C° 0 mm 2 mps 632 mmHg 32%
    13:00 +21°C° 0 mm 2 mps 631 mmHg 31%
    14:00 +21°C° 0 mm 2 mps 631 mmHg 29%
    15:00 +21°C° 0 mm 2 mps 631 mmHg 32%
    16:00 +20°C° 0 mm 2 mps 630 mmHg 34%
    17:00 +19°C° 0 mm 2 mps 630 mmHg 37%
    18:00 +18°C° 0 mm 1 mps 629 mmHg 42%
    19:00 +15°C° 0 mm 1 mps 629 mmHg 47%
    20:00 +13°C° 0 mm 1 mps 628 mmHg 52%
    21:00 +12°C° 0 mm 1 mps 628 mmHg 53%
    22:00 +12°C° 0 mm 1 mps 628 mmHg 55%
    23:00 +12°C° 0 mm 1 mps 628 mmHg 56%

    23 Septiembre, Domingo

    Tiempo Temperatura Precipitaciones Viento Presión Humedad
    00:00 +11°C° 0 mm 1 mps 628 mmHg 56%
    01:00 +11°C° 0 mm 1 mps 628 mmHg 57%
    02:00 +11°C° 0 mm 1 mps 628 mmHg 57%
    03:00 +11°C° 0 mm 1 mps 628 mmHg 57%
    04:00 +10°C° 0 mm 2 mps 628 mmHg 57%
    05:00 +10°C° 0 mm 2 mps 628 mmHg 57%
    06:00 +12°C° 0 mm 2 mps 629 mmHg 54%
    07:00 +14°C° 0 mm 1 mps 630 mmHg 51%
    08:00 +15°C° 0 mm 1 mps 630 mmHg 48%
    09:00 +18°C° 0 mm 1 mps 631 mmHg 43%
    10:00 +19°C° 0 mm 2 mps 632 mmHg 39%
    11:00 +21°C° 0 mm 2 mps 633 mmHg 35%
    12:00 +21°C° 0 mm 2 mps 632 mmHg 35%
    13:00 +21°C° 0 mm 2 mps 632 mmHg 35%
    14:00 +21°C° 0 mm 2 mps 632 mmHg 35%
    15:00 +20°C° 0 mm 2 mps 632 mmHg 38%
    16:00 +21°C° 0 mm 1 mps 631 mmHg 40%
    17:00 +20°C° 0 mm 1 mps 631 mmHg 43%
    18:00 +18°C° 0 mm 1 mps 630 mmHg 47%
    19:00 +16°C° 0 mm 1 mps 630 mmHg 51%
    20:00 +14°C° 0 mm 1 mps 630 mmHg 56%
    21:00 +13°C° 0 mm 1 mps 629 mmHg 59%
    22:00 +12°C° 0 mm 1 mps 629 mmHg 62%
    23:00 +12°C° 0 mm 2 mps 629 mmHg 65%

    24 Septiembre, Lunes

    Tiempo Temperatura Precipitaciones Viento Presión Humedad
    00:00 +11°C° 0 mm 1 mps 629 mmHg 67%
    01:00 +10°C° 0 mm 1 mps 628 mmHg 70%
    02:00 +10°C° 0 mm 1 mps 628 mmHg 73%
    03:00 +9°C° 0 mm 1 mps 627 mmHg 74%
    04:00 +9°C° 0 mm 1 mps 627 mmHg 75%
    05:00 +9°C° 0 mm 1 mps 627 mmHg 76%
    06:00 +10°C° 0 mm 1 mps 627 mmHg 71%
    07:00 +12°C° 0 mm 1 mps 628 mmHg 66%
    08:00 +13°C° 0 mm 1 mps 628 mmHg 62%
    09:00 +15°C° 0 mm 1 mps 629 mmHg 55%
    10:00 +17°C° 0 mm 2 mps 629 mmHg 48%
    11:00 +19°C° 0 mm 2 mps 630 mmHg 41%
    12:00 +20°C° 0 mm 2 mps 629 mmHg 39%
    13:00 +21°C° 0 mm 3 mps 629 mmHg 37%
    14:00 +22°C° 0 mm 3 mps 629 mmHg 35%
    15:00 +21°C° 0 mm 3 mps 628 mmHg 37%
    16:00 +20°C° 0 mm 3 mps 628 mmHg 40%
    17:00 +20°C° 0 mm 3 mps 627 mmHg 42%
    18:00 +17°C° 0 mm 2 mps 626 mmHg 50%
    19:00 +15°C° 0 mm 2 mps 625 mmHg 57%
    20:00 +13°C° 0 mm 2 mps 624 mmHg 65%
    21:00 +12°C° 0 mm 2 mps 624 mmHg 65%
    22:00 +12°C° 0 mm 2 mps 624 mmHg 65%
    23:00 +10°C° 0 mm 2 mps 624 mmHg 66%
    Mostrar más